| time (UTC) | temp F | wind direction | speed MPH | gust MPH | rain 1hr in | rain 24hr in | rain mn in | humidity % | barometer mb |
| 20260505021555 | 64 | 0 | 0.0 | 3.0 | 0.00 | 0.00 | 0.00 | 35 | 1008.5 |
| 20260505020051 | 64 | 5 | 1.0 | 4.0 | 0.00 | 0.00 | 0.00 | 35 | 1008.4 |
| 20260505014605 | 63 | 0 | 1.0 | 6.0 | 0.00 | 0.00 | 0.00 | 36 | 1008.4 |
| 20260505013053 | 64 | 5 | 3.0 | 10.0 | 0.00 | 0.00 | 0.00 | 35 | 1008.4 |
| 20260505011605 | 63 | 5 | 5.0 | 14.0 | 0.00 | 0.00 | 0.00 | 35 | 1008.3 |
| 20260505010051 | 63 | 5 | 7.0 | 16.0 | 0.00 | 0.00 | 0.00 | 37 | 1008.3 |
| 20260505004555 | 63 | 5 | 6.0 | 18.0 | 0.00 | 0.00 | 0.00 | 38 | 1008.7 |
| 20260505003055 | 62 | 5 | 8.0 | 18.0 | 0.00 | 0.00 | 0.00 | 39 | 1008.6 |
| 20260505001604 | 63 | 5 | 6.0 | 16.0 | 0.00 | 0.00 | 0.00 | 38 | 1008.8 |
| 20260505000136 | 62 | 5 | 9.0 | 20.0 | 0.00 | 0.00 | 0.00 | 41 | 1009.1 |
| 20260504234611 | 63 | 5 | 9.0 | 25.0 | 0.00 | 0.00 | 0.00 | 43 | 1009.1 |
| 20260504233104 | 62 | 5 | 13.0 | 25.0 | 0.00 | 0.00 | 0.00 | 45 | 1009.4 |
| 20260504231553 | 63 | 5 | 9.0 | 21.0 | 0.00 | 0.00 | 0.00 | 39 | 1009.4 |
| 20260504230053 | 64 | 5 | 3.0 | 11.0 | 0.00 | 0.00 | 0.00 | 38 | 1009.5 |
| 20260504224607 | 64 | 5 | 4.0 | 10.0 | 0.00 | 0.00 | 0.00 | 38 | 1009.5 |
| 20260504223056 | 64 | 5 | 3.0 | 13.0 | 0.00 | 0.00 | 0.00 | 39 | 1009.4 |
| 20260504221556 | 68 | 5 | 3.0 | 10.0 | 0.00 | 0.00 | 0.00 | 31 | 1009.4 |
| 20260504220059 | 69 | 5 | 1.0 | 9.0 | 0.00 | 0.00 | 0.00 | 26 | 1009.1 |
| 20260504214553 | 69 | 5 | 5.0 | 12.0 | 0.00 | 0.00 | 0.00 | 30 | 1009.1 |
| 20260504213125 | 69 | 5 | 6.0 | 12.0 | 0.00 | 0.00 | 0.00 | 28 | 1009.2 |
| 20260504211559 | 70 | 5 | 6.0 | 14.0 | 0.00 | 0.00 | 0.00 | 29 | 1009.4 |
| 20260504210058 | 70 | 5 | 10.0 | 17.0 | 0.00 | 0.00 | 0.00 | 27 | 1009.4 |
| 20260504204556 | 71 | 5 | 5.0 | 14.0 | 0.00 | 0.00 | 0.00 | 28 | 1009.4 |
| 20260504203109 | 70 | 5 | 3.0 | 10.0 | 0.00 | 0.00 | 0.00 | 30 | 1009.5 |
| 20260504201552 | 71 | 5 | 6.0 | 13.0 | 0.00 | 0.00 | 0.00 | 30 | 1009.9 |
| 20260504200054 | 71 | 5 | 2.0 | 10.0 | 0.00 | 0.00 | 0.00 | 29 | 1009.9 |
| 20260504194604 | 72 | 5 | 2.0 | 8.0 | 0.00 | 0.00 | 0.00 | 29 | 1009.9 |
| 20260504193108 | 69 | 5 | 5.0 | 10.0 | 0.00 | 0.00 | 0.00 | 31 | 1010.3 |
| 20260504191555 | 68 | 5 | 4.0 | 11.0 | 0.00 | 0.00 | 0.00 | 29 | 1010.4 |
| 20260504190114 | 69 | 5 | 3.0 | 9.0 | 0.00 | 0.00 | 0.00 | 33 | 1010.6 |
| 20260504184606 | 69 | 5 | 2.0 | 10.0 | 0.00 | 0.00 | 0.00 | 28 | 1010.8 |
| 20260504183052 | 70 | 5 | 3.0 | 9.0 | 0.00 | 0.00 | 0.00 | 28 | 1010.9 |
| 20260504181555 | 70 | 5 | 2.0 | 5.0 | 0.00 | 0.00 | 0.00 | 31 | 1011.1 |
| 20260504180055 | 69 | 5 | 3.0 | 9.0 | 0.00 | 0.00 | 0.00 | 31 | 1011.3 |
| 20260504174602 | 68 | 5 | 3.0 | 10.0 | 0.00 | 0.00 | 0.00 | 32 | 1011.3 |
| 20260504173106 | 67 | 5 | 2.0 | 6.0 | 0.00 | 0.00 | 0.00 | 34 | 1011.4 |
| 20260504171555 | 67 | 5 | 2.0 | 8.0 | 0.00 | 0.00 | 0.00 | 34 | 1011.5 |
| 20260504140109 | 58 | 5 | 2.0 | 5.0 | 0.00 | 0.00 | 0.00 | 44 | 1011.9 |
| 20260504110117 | 58 | 0 | 0.0 | 5.0 | 0.00 | 0.00 | 0.00 | 36 | 1011.9 |
| 20260504090119 | 58 | 5 | 1.0 | 8.0 | 0.00 | 0.00 | 0.00 | 35 | 1011.4 |
| 20260504081556 | 61 | 5 | 1.0 | 6.0 | 0.00 | 0.00 | 0.00 | 25 | 1011.4 |
| 20260504050107 | 58 | 0 | 0.0 | 1.0 | 0.00 | 0.00 | 0.00 | 29 | 1011.8 |
| 20260504044603 | 59 | 5 | 0.0 | 1.0 | 0.00 | 0.00 | 0.00 | 30 | 1012.0 |
| 20260504043056 | 60 | 0 | 0.0 | 1.0 | 0.00 | 0.00 | 0.00 | 29 | 1012.0 |
| 20260504041600 | 62 | 5 | 1.0 | 4.0 | 0.00 | 0.00 | 0.00 | 27 | 1012.0 |
| 20260504040107 | 64 | 5 | 3.0 | 10.0 | 0.00 | 0.00 | 0.00 | 22 | 1011.9 |
| 20260504034605 | 65 | 5 | 3.0 | 8.0 | 0.00 | 0.00 | 0.00 | 22 | 1012.0 |
| 20260504033117 | 65 | 5 | 3.0 | 8.0 | 0.00 | 0.00 | 0.00 | 22 | 1011.9 |
| 20260504031600 | 66 | 5 | 5.0 | 10.0 | 0.00 | 0.00 | 0.00 | 22 | 1011.9 |
| 20260504030100 | 65 | 5 | 3.0 | 10.0 | 0.00 | 0.00 | 0.00 | 23 | 1012.0 |
| 20260504024605 | 66 | 5 | 3.0 | 9.0 | 0.00 | 0.00 | 0.00 | 21 | 1012.0 |
| 20260504023057 | 66 | 5 | 4.0 | 8.0 | 0.00 | 0.00 | 0.00 | 22 | 1011.9 |